QPF
0.00 0.00 0.00 0.00 0.00 0.00 0.00 0.00 0.00 0.00 0.00 0.00 0.00 0.00 0.00 0.00 0.00 0.00 0.00 0.00 0.00 0.00 0.00 0.00 0.00 0.00 0.00 0.00 0.00 0.00 0.00 0.00 0.00 0.00 0.00 0.00 0.00 0.01
0.00 0.00 0.00 0.00 0.00 0.00 0.00 0.00 0.00 0.00 0.00 0.00 0.00 0.00 0.00 0.00 0.00 0.00 0.00 0.00 0.00 0.00 0.00 0.00 0.00 0.00 0.00 0.00 0.00 0.00 0.00 0.00 0.00 0.00 0.00 0.00 0.00 0.01
0.00 0.00 0.00 0.00 0.00 0.00 0.00 0.00 0.00 0.00 0.00 0.00 0.00 0.00 0.00 0.00 0.00 0.00 0.00 0.00 0.00 0.00 0.00 0.00 0.00 0.00 0.00 0.00 0.00 0.00 0.00 0.00 0.00 0.00 0.00 0.01 0.00 0.01
0.00 0.00 0.00 0.00 0.00 0.00 0.00 0.00 0.00 0.00 0.00 0.00 0.00 0.00 0.00 0.00 0.00 0.00 0.00 0.00 0.00 0.00 0.00 0.00 0.00 0.00 0.00 0.00 0.00 0.00 0.00 0.00 0.00 0.00 0.00 0.00 0.01 0.00
0.00 0.00 0.00 0.00 0.00 0.00 0.00 0.00 0.01 0.01 0.01 0.00 0.00 0.00 0.00 0.00 0.00 0.00 0.00 0.00 0.00 0.00 0.00 0.00 0.00 0.00 0.00 0.00 0.00 0.00 0.00 0.00 0.00 0.00 0.00 0.00 0.02 0.00
0.01 0.00 0.00 0.00 0.00 0.01 0.01 0.02 0.03 0.02 0.01 0.01 0.00 0.00 0.00 0.00 0.00 0.00 0.00 0.00 0.00 0.00 0.00 0.00 0.00 0.00 0.00 0.00 0.00 0.00 0.00 0.00 0.00 0.00 0.00 0.00 0.00 0.00
0.03 0.02 0.00 0.00 0.00 0.01 0.03 0.03 0.04 0.03 0.02 0.01 0.01 0.00 0.00 0.00 0.00 0.00 0.00 0.00 0.00 0.00 0.00 0.00 0.00 0.00 0.00 0.00 0.00 0.00 0.00 0.00 0.00 0.00 0.00 0.00 0.00 0.00
0.03 0.02 0.02 0.01 0.00 0.00 0.02 0.03 0.03 0.02 0.02 0.01 0.01 0.00 0.00 0.00 0.00 0.00 0.00 0.00 0.00 0.00 0.00 0.00 0.00 0.00 0.00 0.00 0.00 0.00 0.00 0.00 0.00 0.00 0.00 0.00 0.00 0.00
0.04 0.04 0.02 0.01 0.01 0.02 0.02 0.02 0.03 0.02 0.02 0.02 0.01 0.00 0.00 0.00 0.00 0.00 0.00 0.00 0.00 0.00 0.00 0.00 0.00 0.00 0.00 0.00 0.00 0.00 0.00 0.00 0.00 0.00 0.00 0.00 0.00 0.00
0.01 0.01 0.01 0.02 0.01 0.03 0.04 0.03 0.02 0.01 0.01 0.01 0.01 0.00 0.00 0.00 0.00 0.00 0.00 0.00 0.00 0.00 0.00 0.00 0.00 0.00 0.00 0.00 0.00 0.00 0.00 0.00 0.00 0.00 0.00 0.00 0.00 0.00
0.00 0.00 0.01 0.01 0.02 0.03 0.03 0.02 0.01 0.01 0.00 0.00 0.00 0.00 0.00 0.00 0.00 0.00 0.00 0.00 0.00 0.00 0.00 0.00 0.00 0.00 0.00 0.00 0.00 0.00 0.00 0.00 0.00 0.00 0.00 0.00 0.00 0.00
0.00 0.00 0.00 0.00 0.00 0.01 0.01 0.01 0.01 0.00 0.00 0.00 0.00 0.00 0.00 0.00 0.00 0.00 0.00 0.00 0.00 0.00 0.00 0.00 0.00 0.00 0.00 0.00 0.00 0.00 0.00 0.00 0.00 0.00 0.00 0.00 0.00 0.00
0.00 0.00 0.00 0.00 0.00 0.00 0.00 0.00 0.00 0.00 0.00 0.00 0.00 0.00 0.00 0.00 0.00 0.00 0.00 0.00 0.00 0.00 0.00 0.00 0.00 0.00 0.00 0.00 0.00 0.00 0.00 0.00 0.00 0.00 0.00 0.00 0.00 0.00
0.00 0.00 0.00 0.00 0.00 0.00 0.00 0.00 0.00 0.00 0.00 0.00 0.00 0.00 0.00 0.00 0.00 0.00 0.00 0.00 0.00 0.00 0.00 0.00 0.00 0.00 0.00 0.00 0.00 0.00 0.00 0.00 0.00 0.00 0.00 0.00 0.00 0.00
0.00 0.00 0.00 0.00 0.00 0.00 0.00 0.00 0.00 0.00 0.00 0.00 0.00 0.00 0.00 0.00 0.00 0.00 0.00 0.00 0.00 0.00 0.00 0.00 0.00 0.00 0.00 0.00 0.00 0.00 0.00 0.00 0.00 0.00 0.00 0.00 0.00 0.00
0.00 0.00 0.00 0.00 0.00 0.00 0.00 0.00 0.00 0.00 0.00 0.00 0.00 0.00 0.00 0.00 0.00 0.00 0.00 0.00 0.00 0.00 0.00 0.00 0.00 0.00 0.00 0.00 0.00 0.00 0.00 0.00 0.00 0.00 0.00 0.00 0.00 0.00
0.00 0.00 0.00 0.00 0.00 0.00 0.00 0.00 0.00 0.00 0.00 0.00 0.00 0.00 0.00 0.00 0.00 0.00 0.00 0.00 0.00 0.00 0.00 0.00 0.00 0.00 0.00 0.00 0.00 0.00 0.00 0.00 0.00 0.00 0.00 0.00 0.00 0.00
0.00 0.00 0.00 0.00 0.00 0.00 0.00 0.00 0.00 0.00 0.00 0.00 0.00 0.00 0.00 0.00 0.00 0.00 0.00 0.00 0.00 0.00 0.00 0.00 0.00 0.00 0.00 0.00 0.00 0.00 0.00 0.00 0.00 0.00 0.00 0.00 0.00 0.00
0.00 0.00 0.00 0.00 0.00 0.00 0.00 0.00 0.00 0.00 0.00 0.00 0.00 0.00 0.00 0.00 0.00 0.00 0.00 0.00 0.00 0.00 0.00 0.00 0.00 0.00 0.00 0.00 0.00 0.00 0.00 0.00 0.00 0.00 0.00 0.00 0.00 0.00
0.00 0.00 0.00 0.00 0.00 0.00 0.00 0.00 0.00 0.00 0.00 0.00 0.00 0.00 0.00 0.00 0.00 0.00 0.00 0.00 0.00 0.00 0.00 0.00 0.00 0.00 0.00 0.00 0.00 0.00 0.00 0.00 0.00 0.00 0.00 0.00 0.00 0.00
0.00 0.00 0.00 0.00 0.00 0.00 0.00 0.00 0.00 0.00 0.00 0.00 0.00 0.00 0.00 0.00 0.00 0.00 0.00 0.00 0.00 0.00 0.00 0.00 0.00 0.00 0.00 0.00 0.00 0.00 0.00 0.00 0.00 0.00 0.00 0.00 0.00 0.00
0.00 0.00 0.00 0.00 0.00 0.00 0.00 0.00 0.00 0.00 0.00 0.00 0.00 0.00 0.00 0.00 0.00 0.00 0.00 0.00 0.00 0.00 0.00 0.00 0.00 0.00 0.00 0.00 0.00 0.00 0.00 0.00 0.00 0.00 0.00 0.00 0.00 0.00
0.00 0.00 0.00 0.00 0.00 0.00 0.00 0.00 0.00 0.00 0.00 0.00 0.00 0.00 0.00 0.00 0.00 0.00 0.00 0.00 0.00 0.00 0.00 0.00 0.00 0.00 0.00 0.00 0.00 0.00 0.00 0.00 0.00 0.00 0.00 0.00 0.00 0.00
MSLP
1014.03 1014.50 1015.06 1015.43 1015.98 1016.54 1017.05 1017.71 1018.53 1020.07 1020.49 1020.67 1020.91 1021.00 1021.32 1021.52 1021.73 1022.10 1022.22 1022.21 1022.36 1022.54 1022.62 1022.77 1022.49 1022.17 1022.07 1021.96 1021.68 1021.54 1021.11 1020.82 1020.94 1020.90 1020.68 1020.55 1020.31 1019.92
1013.21 1013.81 1014.35 1014.76 1015.41 1015.97 1016.56 1017.09 1017.64 1018.46 1019.49 1019.84 1020.39 1020.74 1021.07 1021.48 1021.65 1021.91 1021.93 1022.05 1022.15 1022.33 1022.33 1022.43 1022.33 1022.13 1021.91 1021.82 1021.81 1021.68 1021.40 1020.83 1020.68 1020.76 1020.62 1020.50 1020.61 1020.43
1012.53 1013.07 1013.50 1014.04 1014.87 1015.52 1015.97 1016.59 1017.18 1017.70 1018.67 1019.71 1020.02 1020.56 1021.06 1021.37 1021.64 1021.82 1021.75 1021.99 1022.13 1022.04 1022.14 1022.07 1022.12 1022.07 1021.57 1021.53 1021.48 1021.34 1021.31 1020.98 1020.85 1020.65 1020.74 1020.74 1020.72 1020.68
1011.65 1012.31 1012.75 1013.59 1014.22 1014.82 1015.39 1016.05 1016.54 1017.04 1017.72 1018.96 1019.80 1020.34 1020.69 1021.04 1021.25 1021.32 1021.50 1021.54 1021.85 1021.81 1021.68 1021.76 1021.67 1021.76 1021.55 1021.40 1021.41 1021.18 1021.16 1021.05 1021.03 1020.87 1020.74 1020.66 1020.66 1020.91
1010.67 1011.34 1012.00 1012.98 1013.74 1014.38 1014.80 1015.44 1016.08 1016.56 1017.04 1017.97 1019.17 1020.02 1020.53 1020.95 1021.33 1021.23 1021.56 1021.52 1021.78 1021.66 1021.52 1021.74 1021.74 1021.51 1021.45 1021.21 1021.31 1021.22 1020.99 1021.16 1020.98 1020.86 1020.90 1020.87 1020.84 1020.95
1010.24 1010.70 1011.19 1011.90 1012.52 1013.37 1014.08 1014.65 1015.37 1016.11 1016.75 1017.54 1018.49 1019.32 1019.89 1020.55 1021.00 1020.91 1021.38 1021.52 1021.94 1021.62 1021.27 1021.71 1021.82 1021.57 1021.41 1021.25 1021.03 1020.80 1020.51 1020.57 1020.36 1020.37 1020.41 1020.41 1020.50 1020.84
1010.14 1010.61 1011.06 1011.05 1011.52 1012.17 1012.95 1013.90 1014.56 1015.37 1016.23 1017.03 1017.85 1018.68 1019.36 1019.93 1020.18 1020.61 1021.09 1021.43 1021.88 1021.41 1021.51 1021.64 1021.94 1021.73 1021.43 1021.27 1021.11 1020.70 1020.46 1020.58 1020.47 1020.48 1020.51 1020.54 1020.60 1020.91
1009.78 1010.54 1010.41 1010.72 1011.13 1011.54 1011.97 1012.47 1012.85 1013.81 1014.77 1015.90 1016.75 1017.31 1017.79 1018.42 1019.41 1020.06 1020.99 1021.90 1021.85 1021.59 1021.78 1021.89 1021.72 1021.74 1021.92 1021.69 1021.31 1020.93 1020.63 1020.65 1020.60 1020.68 1020.74 1020.74 1020.95 1021.12
1009.29 1009.63 1010.17 1010.28 1010.80 1011.20 1011.68 1011.82 1012.37 1012.64 1012.75 1013.59 1015.01 1015.86 1016.78 1016.97 1018.04 1019.33 1019.93 1020.80 1021.11 1021.39 1021.50 1021.87 1022.13 1021.87 1021.79 1021.54 1021.37 1021.41 1021.19 1020.84 1020.72 1020.69 1020.87 1021.01 1021.28 1021.72
1008.81 1009.03 1009.32 1009.76 1010.19 1010.52 1011.31 1011.72 1011.87 1012.19 1012.56 1012.88 1013.38 1014.60 1015.42 1016.41 1016.84 1017.86 1018.61 1020.06 1020.81 1021.11 1021.12 1021.47 1021.57 1021.67 1021.50 1021.50 1021.20 1021.27 1021.31 1021.00 1020.81 1020.85 1021.00 1021.19 1021.47 1021.79
1008.92 1009.04 1009.20 1009.41 1009.69 1010.16 1010.63 1011.11 1011.42 1011.55 1012.17 1012.67 1012.57 1013.34 1014.48 1015.52 1016.70 1018.05 1018.76 1020.21 1020.70 1020.77 1021.01 1021.21 1021.32 1021.10 1021.25 1021.22 1021.47 1021.21 1020.96 1020.94 1020.84 1020.90 1020.66 1020.90 1021.39 1021.69
1009.41 1009.38 1009.46 1008.97 1008.95 1009.48 1009.51 1010.00 1010.57 1010.96 1011.59 1012.26 1013.33 1013.93 1014.79 1015.30 1016.49 1017.19 1018.07 1019.39 1019.94 1020.21 1020.47 1020.83 1021.41 1021.52 1021.64 1021.20 1021.20 1021.36 1021.28 1021.02 1020.90 1020.68 1020.55 1020.59 1020.70 1021.45
1010.00 1009.89 1009.74 1009.57 1009.32 1008.55 1009.26 1009.47 1009.35 1010.71 1010.88 1011.82 1012.67 1013.86 1014.75 1014.89 1016.15 1016.85 1017.33 1017.87 1018.82 1019.12 1019.12 1019.84 1021.04 1021.80 1021.92 1021.92 1021.76 1021.32 1021.45 1021.56 1021.22 1020.87 1020.89 1020.81 1020.66 1020.98
1010.35 1010.06 1009.91 1009.73 1009.55 1009.11 1009.03 1009.01 1009.27 1010.09 1010.81 1011.69 1012.61 1013.99 1014.48 1015.13 1015.82 1016.58 1017.32 1017.78 1017.44 1017.80 1018.52 1019.16 1020.27 1021.15 1021.62 1021.69 1021.85 1021.48 1021.63 1021.64 1021.39 1021.16 1021.13 1020.95 1020.80 1021.02
1010.35 1010.11 1009.84 1009.50 1009.42 1009.49 1009.50 1009.60 1009.35 1010.01 1010.86 1011.40 1012.01 1012.99 1013.68 1014.52 1015.45 1016.73 1017.56 1017.52 1018.24 1018.42 1018.93 1019.42 1019.90 1020.79 1021.48 1021.73 1021.90 1022.09 1021.96 1021.90 1021.92 1021.81 1021.44 1021.21 1020.83 1020.70
1010.38 1009.89 1009.63 1009.49 1009.46 1009.21 1009.37 1009.61 1009.85 1009.96 1009.91 1010.10 1011.04 1012.55 1013.46 1014.20 1015.41 1016.21 1016.79 1017.56 1018.42 1019.10 1019.25 1019.45 1019.81 1020.24 1020.95 1021.24 1021.27 1021.90 1022.03 1022.23 1021.83 1021.77 1021.85 1021.62 1021.39 1021.16
1010.45 1009.90 1009.62 1009.38 1009.13 1009.19 1009.25 1009.17 1009.39 1009.56 1009.68 1010.31 1011.02 1011.84 1013.15 1013.90 1014.80 1015.73 1016.15 1017.08 1017.76 1018.54 1019.32 1019.78 1020.33 1020.35 1020.38 1020.75 1021.30 1021.37 1021.76 1022.14 1021.49 1021.41 1021.54 1021.49 1021.16 1021.03
1010.52 1010.06 1009.72 1009.47 1009.18 1009.07 1008.81 1009.20 1009.28 1009.29 1009.54 1009.61 1009.94 1010.58 1011.53 1012.87 1013.78 1014.78 1015.86 1016.37 1017.31 1017.98 1018.48 1019.21 1019.80 1020.49 1020.88 1020.59 1020.25 1020.58 1021.17 1021.66 1021.50 1021.42 1021.14 1021.26 1021.13 1020.82
1010.75 1010.24 1009.76 1009.25 1008.73 1008.50 1008.35 1008.32 1008.42 1008.23 1008.67 1009.28 1009.96 1009.93 1011.09 1011.65 1012.44 1013.44 1014.81 1015.72 1016.56 1017.17 1017.83 1018.75 1019.39 1019.92 1020.64 1020.65 1019.97 1019.68 1020.07 1020.80 1021.03 1021.42 1020.73 1020.72 1020.65 1020.40
1011.52 1010.88 1009.92 1009.09 1008.37 1007.90 1007.75 1007.76 1007.75 1007.60 1007.90 1008.62 1008.71 1008.90 1009.56 1010.43 1011.68 1012.77 1013.74 1014.78 1015.70 1016.37 1017.24 1017.93 1018.29 1018.60 1018.95 1019.61 1019.78 1019.52 1019.52 1020.27 1020.48 1020.74 1020.66 1020.31 1020.18 1019.96
1011.86 1010.87 1010.05 1009.32 1008.47 1007.78 1007.35 1007.10 1007.15 1007.23 1007.08 1007.55 1008.27 1008.39 1009.07 1009.89 1010.67 1011.53 1012.59 1013.92 1014.91 1015.48 1016.02 1016.55 1016.53 1017.31 1018.33 1019.01 1019.48 1019.41 1019.25 1019.67 1019.83 1019.93 1020.11 1020.18 1020.18 1019.87
1011.95 1011.04 1010.05 1009.19 1008.40 1007.55 1006.81 1006.37 1006.29 1006.43 1006.68 1006.88 1007.02 1007.54 1008.33 1009.09 1009.98 1010.69 1011.80 1012.72 1013.73 1014.48 1014.77 1015.43 1016.38 1017.13 1018.01 1018.45 1018.73 1019.06 1019.28 1019.39 1019.38 1019.34 1019.51 1019.48 1019.75 1019.45
1012.06 1011.15 1009.98 1008.94 1008.01 1007.03 1006.31 1005.89 1005.82 1005.81 1005.97 1006.13 1005.93 1006.54 1007.15 1008.07 1009.00 1009.83 1010.78 1011.65 1012.93 1013.73 1014.30 1015.27 1016.19 1016.79 1017.18 1017.63 1018.07 1018.50 1018.98 1019.20 1019.07 1019.15 1019.09 1018.70 1018.75 1018.99
Thickness
5648 5648 5648 5652 5650 5648 5645 5643 5637 5626 5628 5621 5620 5616 5612 5610 5608 5604 5601 5598 5593 5588 5585 5581 5581 5582 5581 5580 5581 5580 5580 5580 5576 5573 5572 5571 5570 5569
5645 5644 5645 5648 5646 5644 5640 5637 5635 5629 5625 5618 5614 5610 5604 5601 5600 5596 5593 5590 5585 5581 5577 5574 5574 5573 5573 5573 5571 5570 5568 5572 5571 5567 5565 5564 5559 5556
5642 5642 5643 5643 5639 5637 5635 5631 5628 5626 5620 5609 5607 5601 5595 5593 5590 5587 5585 5582 5578 5574 5569 5566 5565 5564 5568 5567 5566 5564 5561 5562 5561 5560 5555 5552 5550 5548
5640 5638 5640 5637 5635 5632 5629 5626 5623 5619 5615 5608 5598 5592 5588 5584 5582 5580 5576 5573 5569 5567 5563 5560 5559 5557 5558 5557 5556 5555 5553 5552 5552 5550 5547 5546 5543 5538
5639 5637 5635 5630 5627 5624 5622 5618 5613 5609 5608 5601 5590 5582 5578 5574 5570 5570 5565 5564 5559 5557 5554 5550 5548 5548 5548 5548 5546 5545 5546 5542 5543 5542 5539 5536 5533 5531
5634 5633 5632 5628 5626 5621 5616 5612 5605 5601 5596 5590 5580 5574 5571 5565 5561 5562 5556 5552 5547 5548 5547 5541 5538 5538 5537 5537 5539 5540 5541 5539 5540 5538 5536 5534 5530 5523
5625 5622 5621 5623 5621 5617 5612 5604 5597 5593 5586 5579 5572 5566 5563 5558 5556 5551 5547 5542 5538 5540 5537 5534 5529 5529 5530 5529 5528 5530 5531 5528 5528 5528 5526 5524 5519 5514
5618 5613 5614 5612 5609 5609 5605 5601 5601 5591 5584 5576 5569 5569 5564 5559 5549 5542 5535 5528 5528 5527 5524 5522 5522 5518 5514 5514 5515 5517 5519 5518 5518 5515 5514 5512 5507 5502
5612 5608 5604 5603 5600 5599 5595 5595 5592 5591 5588 5582 5570 5566 5558 5555 5548 5535 5529 5521 5519 5515 5513 5510 5505 5505 5504 5505 5506 5504 5504 5505 5505 5504 5502 5499 5494 5487
5607 5606 5603 5598 5596 5592 5583 5581 5581 5579 5576 5574 5571 5561 5553 5546 5543 5534 5528 5516 5508 5506 5505 5503 5499 5497 5497 5495 5495 5493 5491 5492 5491 5491 5489 5486 5483 5477
5596 5595 5594 5591 5587 5581 5576 5572 5571 5571 5566 5561 5562 5557 5547 5539 5531 5518 5512 5499 5495 5497 5495 5493 5490 5490 5487 5485 5480 5479 5481 5481 5481 5481 5482 5478 5472 5468
5582 5582 5580 5585 5581 5574 5575 5571 5567 5565 5557 5551 5543 5538 5531 5527 5515 5510 5502 5491 5487 5485 5484 5481 5474 5472 5472 5472 5470 5469 5469 5469 5469 5471 5472 5470 5468 5460
5568 5567 5566 5567 5567 5572 5565 5562 5565 5551 5547 5539 5533 5524 5518 5515 5503 5499 5494 5489 5479 5478 5478 5472 5462 5455 5454 5454 5454 5459 5458 5456 5458 5460 5459 5457 5456 5452
5554 5555 5554 5553 5553 5555 5554 5555 5552 5543 5534 5526 5520 5509 5504 5500 5493 5486 5478 5475 5476 5473 5467 5464 5456 5448 5443 5444 5446 5448 5447 5445 5447 5448 5446 5446 5446 5440
5541 5541 5540 5540 5537 5534 5533 5533 5536 5528 5519 5514 5508 5500 5491 5484 5479 5468 5460 5461 5456 5455 5454 5451 5447 5440 5435 5432 5432 5431 5431 5432 5432 5432 5434 5436 5437 5438
5519 5519 5519 5517 5514 5515 5511 5510 5509 5508 5510 5509 5501 5486 5474 5469 5460 5451 5450 5447 5441 5437 5438 5437 5435 5431 5426 5425 5424 5418 5418 5414 5418 5421 5420 5419 5419 5421
5495 5494 5489 5487 5486 5483 5483 5485 5486 5484 5485 5482 5478 5471 5462 5456 5451 5443 5440 5435 5429 5425 5422 5419 5416 5415 5416 5414 5408 5411 5407 5405 5411 5411 5412 5411 5411 5411
5460 5460 5457 5452 5452 5451 5452 5450 5452 5458 5459 5461 5462 5458 5453 5447 5441 5432 5424 5422 5417 5413 5411 5409 5405 5400 5397 5401 5404 5401 5397 5395 5396 5398 5403 5401 5400 5401
5419 5414 5411 5410 5413 5414 5419 5424 5427 5438 5439 5438 5436 5442 5437 5436 5431 5428 5419 5413 5410 5406 5403 5398 5394 5388 5379 5383 5391 5395 5391 5388 5389 5386 5393 5392 5391 5393
5357 5358 5362 5367 5373 5378 5381 5386 5397 5407 5419 5421 5424 5428 5425 5422 5418 5413 5409 5406 5401 5397 5398 5391 5386 5388 5384 5382 5377 5381 5384 5380 5381 5378 5378 5381 5382 5383
5328 5328 5328 5331 5339 5347 5354 5360 5369 5382 5394 5399 5404 5408 5407 5408 5408 5407 5403 5398 5394 5394 5393 5389 5390 5386 5380 5376 5371 5374 5376 5370 5370 5370 5369 5369 5368 5372
5294 5290 5292 5296 5304 5316 5331 5343 5349 5360 5372 5384 5388 5393 5396 5399 5401 5400 5395 5395 5391 5388 5388 5386 5380 5374 5370 5369 5366 5365 5363 5363 5362 5362 5361 5362 5358 5358
5268 5265 5270 5277 5286 5298 5310 5323 5333 5343 5354 5365 5379 5383 5389 5393 5392 5392 5390 5388 5382 5378 5378 5373 5368 5365 5365 5363 5359 5357 5354 5352 5353 5353 5353 5355 5355 5354